CZ-6A DEB

Satellite information

Favourite Embed

Satellite Type and Status

DEBRISIN ORBIT

Key statistics

Satellite CZ-6A DEB at a glance.

Uptime

278

Days in orbit

Revolutions

≈ 14.2

Per day

Orbit

LEO

Low Earth Orbit

Inclination

89.0

Latest

Satellite identification and parameters

Extended collection of information and parameters for CZ-6A DEB.

Object identification

Identified? True

Debris? True

Object name: CZ-6A DEB

International designator: 2024-140ABB

Object number (NORAD): 61493

Object ID (CCSDS): 61493

Country: PEOPLES REPUBLIC OF CHINA (PRC)

Current information (Y/N): Y

RCS size: SMALL

Orbital parameters

Period: 101.404 minutes

Inclination: 89.0121 deg

SMA: 7203.276 km

Apoapsis: 858.645 km

Periapsis: 791.637 km

RAAN: 320.4893 deg

Eccentricy: 0.0046512

Argument of periapsis: 29.1124 deg

Mean anomaly: 331.2644 deg

Mean motion: 14.20063158 rev/day

Mean motion (dot): 0.00000517 rev/day2

B* drag term: 0.00023388 1/REarth

Two-line elements (TLE)

Creation date: May 10, 2025, 2:32 a.m.

Reference frame: TEME

Reference center: EARTH

Epoch: May 9, 2025, 10:42 p.m. UTC

TLE line 0: 0 CZ-6A DEB

TLE line 1: 1 61493U 24140ABB 25129.94608265 .00000517 00000-0 23388-3 0 9993

TLE line 2: 2 61493 89.0121 320.4893 0046512 29.1124 331.2644 14.20063158 33359

Live tracking on map

Real-time ground track for satellite CZ-6A DEB.

In-orbit conjunctions

A list of the most updated potential collisions computed for object CZ-6A DEB.

Target Orbit TCA Probability of collision Miss distance Type
NOAA 16 DEB SSO 2025-02-06 10:27:12 0.0001562199 853.0 (m) DEBRIS
THORAD AGENA D DEB LEO 2025-01-25 16:48:57 0.000390983 188.0 (m) DEBRIS
FENGYUN 1C DEB SSO 2024-11-09 13:09:53 0.0003389559 895.0 (m) DEBRIS

Associated space launch

18 Low Earth Orbit communication satellites with Ku, Q and V band payloads for the G60 constellation operated by Shanghai Spacecom Satellite Technology (SSST) with funding backed by the Shanghai local government. Initial constellation will consist of 1296 satellites by 2027 with long term plans to expand it to 12000 satellites.

CZ-6A DEB was lifted into orbit during the mission ‘Long March 6A | G60 Polar Group 01’, on board a Long March 6A space rocket.

The launch took place on Aug. 6, 2024, 6:42 a.m. from Launch Complex 9A.

For more information about the launch, click the button.

Launch to space Long March 6A | G60 Polar Group 01
Long March 6A | G60 Polar Group 01

Agency: N/A

Status: Launch Successful

Launch date: Aug. 6, 2024, 6:42 a.m. UTC

Rocket: Long March 6A

Launch pad: Launch Complex 9A

Location: Taiyuan Satellite Launch Center, People's Republic of China

...

Latest news about this satellite

News about space launch
Brightness of first Chinese broadband constellation satellites alarms astronomers

The first satellites of a Chinese broadband constellation are significantly brighter than those of Western systems, posing a new challenge for astronomers.

News about space launch
Chinese rocket stage breaks up into cloud of more than 700 pieces of space debris

HELSINKI — A Chinese Long March 6A rocket’s upper stage has fragmented into a cloud of over 700 pieces of space debris, adding to concerns about long-term orbital safety. China […]

News about space launch
China's Thousand Sails Megaconstellation Kicks Off with Dangerous Debris Field

China's Thousand Sails Megaconstellation Kicks Off with Dangerous Debris Field


Newsletter sign-up

Weekly statistics, charts and insights to help you stay on top of the space industry.